Flag for Pakistan Weather past 2 weeks in Narowal, Pakistan

Now
106 °F

Duststorm.


Feels Like: 102 °F
Forecast: 72 / 106 °F
Wind: 8 mph from Northwest

Location: Amritsar Airport

Current Time: May 22, 2015 at 6:04:28 PM

Latest Report: May 22, 2015 at 5:00 PM


Visibility: 3 mi

Pressure: 29.47 "Hg

Humidity: 13%

Dew point: 46 °F

Location of NarowalLocation

Historic Weather in Narowal — Graph

°F

Narowal temperature yesterday

Maximum temperature yesterday: 108 °F (at 3:00 PM)
Minimum temperature yesterday: 73 °F (at 4:30 AM)
Average temperature yesterday: 92 °F

Past Weeks' High & Low Weather Summary

 TemperatureHumidityPressure
High108 °F (May 8, 1:30 PM)100% (May 13, 1:30 AM)29.89 "Hg (May 13, 1:30 AM)
Low68 °F (May 13, 1:30 AM)10% (May 8, 12:30 PM)29.47 "Hg (May 22, 4:00 PM)
Average87 °F46%29.67 "Hg
* Reported May 7 5:00 PM — May 22 5:00 PM, Narowal, Weather by CustomWeather, © 2015

Note: Actual official high and low records may vary slightly from our data, if they occured in-between our weather recording intervals... More about our weather records

Advertising

Narowal weather history for previous 24 hours

 ConditionsComfort  
Time TempWeatherWind HumidityBarometerVisibility
5:00 PM
Fri, May 22
106 °FDuststorm.8 mph13%29.47 "Hg3 mi
4:30 PM106 °FPassing clouds.8 mph13%29.47 "Hg3 mi
4:00 PM108 °FDuststorm.5 mph13%29.47 "Hg3 mi
3:30 PM108 °FDuststorm.9 mph13%29.50 "Hg3 mi
3:00 PM108 °FDuststorm.9 mph12%29.50 "Hg3 mi
2:30 PM108 °FDuststorm.6 mph13%29.50 "Hg3 mi
12:30 PM108 °FDuststorm.6 mph15%29.56 "Hg3 mi
12:00 PM106 °FDuststorm.7 mph14%29.56 "Hg3 mi
11:30 AM104 °FDuststorm.5 mph14%29.56 "Hg3 mi
11:00 AM104 °FDuststorm.5 mph14%29.59 "Hg3 mi
10:30 AM102 °FDuststorm.6 mph16%29.59 "Hg3 mi
10:00 AM100 °FDuststorm.6 mph20%29.59 "Hg2 mi
9:30 AM97 °FHaze.2 mph25%29.59 "Hg2 mi
9:00 AM95 °FHaze.No wind30%29.59 "Hg2 mi
8:30 AM91 °FHaze.No wind32%29.59 "Hg2 mi
8:00 AM90 °FHaze.No wind31%29.59 "Hg2 mi
7:30 AM86 °FHaze.No wind38%29.59 "Hg2 mi
6:00 AM77 °FHaze.No wind54%29.56 "Hg2 mi
5:30 AM73 °FHaze.No wind61%29.56 "Hg2 mi
4:30 AM75 °FHaze.No wind57%29.56 "Hg2 mi
1:00 AM82 °FDuststorm.No wind45%29.56 "Hg2 mi
12:30 AM82 °FDuststorm.No wind45%29.56 "Hg2 mi
12:00 AM82 °FDuststorm.No wind48%29.56 "Hg2 mi
10:30 PM
Thu, May 21
84 °FDuststorm.No wind40%29.59 "Hg2 mi
9:30 PM88 °FDuststorm.No wind35%29.59 "Hg2 mi
9:00 PM90 °FDuststorm.No wind29%29.59 "Hg2 mi
8:00 PM93 °FDuststorm.No wind30%29.56 "Hg2 mi
7:30 PM97 °FDuststorm.1 mph22%29.56 "Hg2 mi
7:00 PM99 °FDuststorm.5 mph19%29.56 "Hg2 mi
6:30 PM100 °FDuststorm.6 mph18%29.56 "Hg2 mi
6:00 PM100 °FDuststorm.6 mph18%29.56 "Hg2 mi
Weather by CustomWeather, © 2015

See weather overviewHow to use our weather pages